Burlington, WA

1:57 PM PDT on May 26, 2018 (GMT -0700)
Skagit Regional

Weather History for KBVS - May, 2013

Change the Weather History Date:

Wednesday, May 1, 2013

  Actual Average Record
Temperature  
Mean Temperature 47 °F -  
Max Temperature 59 °F 61 °F 75 °F (1976)
Min Temperature 35 °F 42 °F 35 °F (2013)
Degree Days  
Heating Degree Days 18    
Moisture  
Dew Point 38 °F    
Average Humidity 74    
Maximum Humidity 100    
Minimum Humidity 44    
Precipitation  
Precipitation 0.00 in - - ()
Sea Level Pressure  
Sea Level Pressure 30.57 in    
Wind  
Wind Speed 3 mph (NW)    
Max Wind Speed 13 mph    
Max Gust Speed 16 mph    
Visibility 10 miles    
Events      
Averages and records for this station are not official NWS values.
T = Trace of Precipitation, MM = Missing Value Source: NWS Daily Summary

Daily Weather History Graph

Daily Weather History Graph

Search for Another Location

Airport or City:

Astronomy

May. 01, 2013 Rise Set
Actual Time 5:49 AM PDT 8:24 PM PDT
Civil Twilight 5:14 AM PDT 9:00 PM PDT
Nautical Twilight 4:30 AM PDT 9:44 PM PDT
Astronomical Twilight 3:38 AM PDT 10:37 PM PDT
Moon 1:38 AM PDT (5/1) 11:35 AM PDT (5/1)
Length of Visible Light 15h 45m
Length of Day
14h 35m
Waning Gibbous, 58% of the Moon is Illuminated
May 1
Waning Gibbous
May 2
Last Quarter
May 9
New
May 17
First Quarter
May 24
Full

Hourly Weather History & Observations

Time (PDT) Temp. Windchill Dew Point Humidity Pressure Visibility Wind Dir Wind Speed Gust Speed Precip Events Conditions
12:15 AM 39.2 °F - 37.4 °F 93% 30.47 in 10.0 mi Calm Calm - 0.00 in   Clear
12:35 AM 39.2 °F - 39.2 °F 100% 30.48 in 10.0 mi Calm Calm - 0.00 in   Clear
12:55 AM 39.2 °F 37.0 °F 39.2 °F 100% 30.49 in 10.0 mi NE 3.5 mph - 0.00 in   Clear
1:15 AM 39.2 °F - 39.2 °F 100% 30.49 in 10.0 mi Calm Calm - 0.00 in   Clear
1:35 AM 39.2 °F - 39.2 °F 100% 30.50 in 10.0 mi Calm Calm - 0.00 in   Clear
1:55 AM 39.2 °F - 39.2 °F 100% 30.50 in 10.0 mi Calm Calm - 0.00 in   Clear
2:15 AM 37.4 °F - 37.4 °F 100% 30.51 in 10.0 mi Calm Calm - 0.00 in   Clear
2:35 AM 37.4 °F - 37.4 °F 100% 30.51 in 10.0 mi Calm Calm - 0.00 in   Clear
2:55 AM 35.6 °F 32.8 °F 35.6 °F 100% 30.51 in 10.0 mi NE 3.5 mph - 0.00 in   Clear
3:15 AM 37.4 °F - 37.4 °F 100% 30.51 in 10.0 mi Calm Calm - 0.00 in   Clear
3:35 AM 37.4 °F 34.9 °F 37.4 °F 100% 30.51 in 10.0 mi ENE 3.5 mph - 0.00 in   Clear
3:55 AM 37.4 °F - 37.4 °F 100% 30.51 in 10.0 mi Calm Calm - 0.00 in   Clear
4:15 AM 37.4 °F - 37.4 °F 100% 30.52 in 10.0 mi Calm Calm - 0.00 in   Clear
4:35 AM 37.4 °F - 37.4 °F 100% 30.53 in 10.0 mi Calm Calm - 0.00 in   Clear
4:55 AM 37.4 °F - 37.4 °F 100% 30.54 in 10.0 mi Calm Calm - 0.00 in   Clear
5:15 AM 35.6 °F - 35.6 °F 100% 30.54 in 10.0 mi Calm Calm - 0.00 in   Clear
5:35 AM 35.6 °F 32.8 °F 35.6 °F 100% 30.55 in 10.0 mi NNW 3.5 mph - 0.00 in   Clear
5:55 AM 35.6 °F - 35.6 °F 100% 30.55 in 10.0 mi Calm Calm - 0.00 in   Clear
6:15 AM 37.4 °F - 37.4 °F 100% 30.56 in 10.0 mi Calm Calm - 0.00 in   Clear
6:35 AM 37.4 °F - 37.4 °F 100% 30.57 in 10.0 mi Calm Calm - 0.00 in   Clear
6:55 AM 35.6 °F - 35.6 °F 100% 30.57 in 10.0 mi Calm Calm - 0.00 in   Clear
7:15 AM 37.4 °F - 37.4 °F 100% 30.58 in 10.0 mi Calm Calm - 0.00 in   Clear
7:35 AM 39.2 °F - 39.2 °F 100% 30.59 in 10.0 mi Calm Calm - 0.00 in   Clear
7:55 AM 41.0 °F - 41.0 °F 100% 30.59 in 10.0 mi Calm Calm - 0.00 in   Clear
8:15 AM 42.8 °F 41.1 °F 39.2 °F 87% 30.60 in 10.0 mi East 3.5 mph - 0.00 in   Clear
8:35 AM 44.6 °F - 39.2 °F 81% 30.60 in 10.0 mi Calm Calm - 0.00 in   Clear
8:55 AM 44.6 °F 43.1 °F 39.2 °F 81% 30.59 in 10.0 mi NE 3.5 mph - 0.00 in   Clear
9:15 AM 46.4 °F - 39.2 °F 76% 30.60 in 10.0 mi Calm Calm - 0.00 in   Clear
9:35 AM 48.2 °F - 37.4 °F 66% 30.60 in 10.0 mi Calm Calm - 0.00 in   Clear
9:55 AM 48.2 °F - 37.4 °F 66% 30.60 in 10.0 mi NE 3.5 mph - 0.00 in   Clear
10:15 AM 51.8 °F - 39.2 °F 62% 30.60 in 10.0 mi NE 3.5 mph - 0.00 in   Clear
10:35 AM 51.8 °F - 37.4 °F 58% 30.60 in 10.0 mi WSW 3.5 mph - 0.00 in   Clear
10:55 AM 51.8 °F - 41.0 °F 67% 30.60 in 10.0 mi WNW 8.1 mph - 0.00 in   Clear
11:15 AM 53.6 °F - 37.4 °F 54% 30.60 in 10.0 mi NW 5.8 mph - 0.00 in   Clear
11:35 AM 53.6 °F - 39.2 °F 58% 30.60 in 10.0 mi WSW 4.6 mph - 0.00 in   Clear
11:55 AM 55.4 °F - 39.2 °F 54% 30.60 in 10.0 mi North 4.6 mph - 0.00 in   Clear
12:15 PM 55.4 °F - 39.2 °F 54% 30.59 in 10.0 mi NNW 4.6 mph - 0.00 in   Clear
12:35 PM 55.4 °F - 39.2 °F 54% 30.59 in 10.0 mi NNW 8.1 mph - 0.00 in   Clear
12:55 PM 55.4 °F - 37.4 °F 51% 30.60 in 10.0 mi WNW 9.2 mph - 0.00 in   Clear
1:15 PM 55.4 °F - 39.2 °F 54% 30.59 in 10.0 mi NW 11.5 mph - 0.00 in   Clear
1:35 PM 55.4 °F - 39.2 °F 54% 30.60 in 10.0 mi WNW 10.4 mph - 0.00 in   Clear
1:55 PM 57.2 °F - 41.0 °F 55% 30.60 in 10.0 mi NW 10.4 mph - 0.00 in   Clear
2:15 PM 57.2 °F - 41.0 °F 55% 30.60 in 10.0 mi WNW 10.4 mph - 0.00 in   Clear
2:35 PM 57.2 °F - 42.8 °F 59% 30.60 in 10.0 mi NW 11.5 mph - 0.00 in   Clear
2:55 PM 57.2 °F - 37.4 °F 48% 30.60 in 10.0 mi NW 9.2 mph - 0.00 in   Clear
3:15 PM 57.2 °F - 37.4 °F 48% 30.59 in 10.0 mi WNW 9.2 mph - 0.00 in   Clear
3:35 PM 57.2 °F - 35.6 °F 44% 30.59 in 10.0 mi WNW 11.5 mph 16.1 mph 0.00 in   Clear
3:55 PM 57.2 °F - 37.4 °F 48% 30.59 in 10.0 mi NW 11.5 mph - 0.00 in   Clear
4:35 PM 59.0 °F - 37.4 °F 45% 30.58 in 10.0 mi NW 12.7 mph - 0.00 in   Clear
4:55 PM 59.0 °F - 41.0 °F 51% 30.58 in 10.0 mi WNW 11.5 mph - 0.00 in   Clear
5:15 PM 57.2 °F - 39.2 °F 51% 30.57 in 10.0 mi WNW 9.2 mph - 0.00 in   Clear
5:35 PM 57.2 °F - 41.0 °F 55% 30.57 in 10.0 mi NW 10.4 mph - 0.00 in   Clear
5:55 PM 57.2 °F - 41.0 °F 55% 30.57 in 10.0 mi WNW 9.2 mph - 0.00 in   Clear
6:15 PM 57.2 °F - 39.2 °F 51% 30.57 in 10.0 mi WNW 9.2 mph - 0.00 in   Clear
6:35 PM 57.2 °F - 42.8 °F 59% 30.56 in 10.0 mi NW 8.1 mph - 0.00 in   Clear
6:55 PM 55.4 °F - 41.0 °F 58% 30.56 in 10.0 mi WNW 8.1 mph - 0.00 in   Clear
7:15 PM 55.4 °F - 42.8 °F 63% 30.56 in 10.0 mi NW 8.1 mph - 0.00 in   Clear
7:35 PM 55.4 °F - 39.2 °F 54% 30.56 in 10.0 mi WNW 5.8 mph - 0.00 in   Clear
8:15 PM 53.6 °F - 37.4 °F 54% 30.56 in 10.0 mi WNW 6.9 mph - 0.00 in   Clear
8:35 PM 51.8 °F - 37.4 °F 58% 30.56 in 10.0 mi WNW 6.9 mph - 0.00 in   Clear
8:55 PM 50.0 °F - 37.4 °F 62% 30.57 in 10.0 mi WNW 8.1 mph - 0.00 in   Clear
9:15 PM 46.4 °F 42.9 °F 37.4 °F 71% 30.57 in 10.0 mi WNW 6.9 mph - 0.00 in   Clear
9:35 PM 46.4 °F 43.5 °F 35.6 °F 66% 30.57 in 10.0 mi WNW 5.8 mph - 0.00 in   Clear
9:55 PM 46.4 °F 45.2 °F 37.4 °F 71% 30.58 in 10.0 mi WNW 3.5 mph - 0.00 in   Clear
10:15 PM 46.4 °F 44.3 °F 35.6 °F 66% 30.58 in 10.0 mi WNW 4.6 mph - 0.00 in   Clear
10:35 PM 46.4 °F 44.3 °F 33.8 °F 62% 30.57 in 10.0 mi WNW 4.6 mph - 0.00 in   Clear
10:55 PM 44.6 °F 41.4 °F 35.6 °F 71% 30.57 in 10.0 mi NW 5.8 mph - 0.00 in   Clear
11:15 PM 42.8 °F 40.1 °F 37.4 °F 81% 30.57 in 10.0 mi NW 4.6 mph - 0.00 in   Clear
11:35 PM 44.6 °F - 42.8 °F 93% 30.58 in 10.0 mi Calm Calm - 0.00 in   Clear
11:55 PM 46.4 °F 44.3 °F 41.0 °F 81% 30.58 in 10.0 mi NW 4.6 mph - 0.00 in   Clear